Oconto, WI

9:18 PM CST on December 15, 2019 (GMT -0600)
Oconto Municipal

Weather History for KOCQ - October, 2019

Change the Weather History Date:

Saturday, October 12, 2019

  Actual Average Record
Temperature  
Mean Temperature 38 °F -  
Max Temperature 44 °F 59 °F 71 °F (2015)
Min Temperature 34 °F 36 °F 26 °F (2018)
Degree Days  
Heating Degree Days 26    
Moisture  
Dew Point 28 °F    
Average Humidity 68    
Maximum Humidity 92    
Minimum Humidity 47    
Precipitation  
Precipitation 0.00 in - - ()
Sea Level Pressure  
Sea Level Pressure 29.76 in    
Wind  
Wind Speed 10 mph (SW)    
Max Wind Speed 21 mph    
Max Gust Speed 33 mph    
Visibility 10 miles    
Events      
Averages and records for this station are not official NWS values.
T = Trace of Precipitation, MM = Missing Value Source: NWS Daily Summary

Daily Weather History Graph

Daily Weather History Graph

Search for Another Location

Airport or City:

Astronomy

Oct. 12, 2019 Rise Set
Actual Time 7:03 AM CDT 6:12 PM CDT
Civil Twilight 6:33 AM CDT 6:41 PM CDT
Nautical Twilight 5:59 AM CDT 7:15 PM CDT
Astronomical Twilight 5:25 AM CDT 7:49 PM CDT
Moon 6:13 PM CDT (10/12) 5:33 AM CDT (10/12)
Length of Visible Light 12h 08m
Length of Day
11h 09m
Waxing Gibbous, 99% of the Moon is Illuminated
Oct 12
Waxing Gibbous
Oct 13
Full
Oct 21
Last Quarter
Oct 27
New
Nov 4
First Quarter

Hourly Weather History & Observations

Time (CDT) Temp. Windchill Dew Point Humidity Pressure Visibility Wind Dir Wind Speed Gust Speed Precip Events Conditions
12:15 AM 36.7 °F 32.0 °F 26.8 °F 67% 29.83 in 10.0 mi SSW 5.8 mph - N/A   Mostly Cloudy
12:35 AM 36.5 °F 31.0 °F 27.0 °F 68% 29.82 in 10.0 mi SSW 6.9 mph - N/A   Mostly Cloudy
12:55 AM 37.0 °F 31.0 °F 27.3 °F 68% 29.82 in 10.0 mi SW 8.1 mph - N/A   Mostly Cloudy
1:15 AM 37.6 °F 30.5 °F 27.3 °F 66% 29.82 in 10.0 mi SW 10.4 mph 16.1 mph N/A   Overcast
1:35 AM 37.8 °F 32.5 °F 27.1 °F 66% 29.82 in 10.0 mi SSW 6.9 mph 17.3 mph N/A   Overcast
1:55 AM 37.9 °F 30.9 °F 27.0 °F 65% 29.82 in 10.0 mi SW 10.4 mph 17.3 mph N/A   Overcast
2:15 AM 38.3 °F 31.4 °F 26.8 °F 63% 29.82 in 10.0 mi SW 10.4 mph 17.3 mph N/A   Overcast
2:35 AM 38.3 °F 31.4 °F 26.8 °F 63% 29.82 in 10.0 mi SW 10.4 mph 19.6 mph N/A   Overcast
2:55 AM 37.9 °F 28.9 °F 26.8 °F 64% 29.81 in 10.0 mi WSW 16.1 mph 21.9 mph N/A   Overcast
3:15 AM 37.8 °F 30.2 °F 27.1 °F 66% 29.81 in 10.0 mi SW 11.5 mph 19.6 mph N/A   Overcast
3:35 AM 37.6 °F 29.6 °F 27.1 °F 66% 29.81 in 10.0 mi SW 12.7 mph 21.9 mph N/A   Overcast
3:55 AM 37.8 °F 29.4 °F 24.3 °F 58% 29.81 in 10.0 mi WSW 13.8 mph 28.8 mph N/A   Overcast
4:15 AM 37.6 °F 29.6 °F 23.4 °F 57% 29.81 in 10.0 mi WSW 12.7 mph 19.6 mph N/A   Overcast
4:35 AM 37.4 °F 30.8 °F 23.5 °F 57% 29.81 in 10.0 mi WSW 9.2 mph 21.9 mph N/A   Overcast
4:55 AM 37.0 °F 30.4 °F 23.9 °F 59% 29.81 in 10.0 mi SW 9.2 mph 16.1 mph N/A   Overcast
5:15 AM 37.0 °F 31.0 °F 25.0 °F 62% 29.81 in 10.0 mi SW 8.1 mph - N/A   Overcast
5:35 AM 37.0 °F 29.8 °F 25.5 °F 63% 29.81 in 10.0 mi SW 10.4 mph - N/A   Overcast
5:55 AM 36.5 °F 31.8 °F 24.8 °F 63% 29.81 in 10.0 mi SSW 5.8 mph - N/A   Mostly Cloudy
6:15 AM 36.5 °F 31.0 °F 25.3 °F 64% 29.81 in 10.0 mi SW 6.9 mph - N/A   Mostly Cloudy
6:35 AM 36.3 °F 28.9 °F 25.2 °F 64% 29.81 in 10.0 mi SW 10.4 mph - N/A   Overcast
6:55 AM 35.6 °F 29.2 °F 25.0 °F 65% 29.81 in 10.0 mi SSW 8.1 mph - N/A   Scattered Clouds
7:15 AM 35.2 °F 28.8 °F 25.3 °F 67% 29.81 in 10.0 mi SSW 8.1 mph - N/A   Clear
7:55 AM 35.8 °F 27.8 °F 25.3 °F 66% 29.81 in 10.0 mi SSW 11.5 mph 19.6 mph N/A   Clear
8:15 AM 36.5 °F 28.7 °F 25.5 °F 64% 29.81 in 10.0 mi SW 11.5 mph 21.9 mph N/A   Clear
8:35 AM 36.7 °F 29.4 °F 25.7 °F 64% 29.80 in 10.0 mi SW 10.4 mph - N/A   Clear
8:55 AM 36.3 °F 28.0 °F 26.1 °F 66% 29.80 in 10.0 mi SSW 12.7 mph 18.4 mph N/A   Scattered Clouds
9:15 AM 37.6 °F 28.8 °F 26.6 °F 65% 29.80 in 10.0 mi SSW 15.0 mph 20.7 mph N/A   Scattered Clouds
9:35 AM 36.5 °F 28.7 °F 25.9 °F 65% 29.80 in 10.0 mi SSW 11.5 mph 20.7 mph N/A   Scattered Clouds
9:55 AM 38.1 °F 29.5 °F 25.7 °F 61% 29.79 in 10.0 mi SW 15.0 mph 21.9 mph N/A   Scattered Clouds
10:15 AM 38.7 °F 31.4 °F 25.5 °F 59% 29.79 in 10.0 mi SW 11.5 mph 24.2 mph N/A   Scattered Clouds
10:35 AM 39.4 °F 30.1 °F 25.9 °F 58% 29.79 in 10.0 mi SW 18.4 mph 33.4 mph N/A   Scattered Clouds
10:55 AM 40.8 °F 34.1 °F 27.0 °F 58% 29.78 in 10.0 mi SSW 11.5 mph 27.6 mph N/A   Scattered Clouds
11:15 AM 41.0 °F 32.2 °F 25.5 °F 54% 29.78 in 10.0 mi SSW 18.4 mph 24.2 mph N/A   Scattered Clouds
11:35 AM 41.4 °F 33.3 °F 26.1 °F 55% 29.78 in 10.0 mi SW 16.1 mph 25.3 mph N/A   Scattered Clouds
11:55 AM 41.2 °F 34.1 °F 25.3 °F 53% 29.77 in 10.0 mi SW 12.7 mph 25.3 mph N/A   Mostly Cloudy
12:15 PM 41.4 °F 33.3 °F 24.4 °F 51% 29.76 in 10.0 mi SSW 16.1 mph 25.3 mph N/A   Mostly Cloudy
12:35 PM 41.9 °F 34.6 °F 25.7 °F 53% 29.76 in 10.0 mi SW 13.8 mph 23.0 mph N/A   Scattered Clouds
12:55 PM 41.5 °F 35.0 °F 25.2 °F 52% 29.74 in 10.0 mi SW 11.5 mph 19.6 mph N/A   Scattered Clouds
1:15 PM 42.3 °F 34.8 °F 24.1 °F 49% 29.74 in 10.0 mi SW 15.0 mph 25.3 mph N/A   Mostly Cloudy
1:35 PM 41.5 °F 34.2 °F 23.9 °F 50% 29.73 in 10.0 mi SSW 13.8 mph 20.7 mph N/A   Mostly Cloudy
1:55 PM 42.3 °F 34.1 °F 24.4 °F 49% 29.72 in 10.0 mi SSW 17.3 mph 24.2 mph N/A   Overcast
2:15 PM 41.9 °F 35.0 °F 25.2 °F 52% 29.72 in 10.0 mi SSW 12.7 mph 21.9 mph N/A   Overcast
2:35 PM 42.6 °F 36.3 °F 25.0 °F 50% 29.72 in 10.0 mi SSW 11.5 mph 20.7 mph N/A   Overcast
2:55 PM 43.7 °F 36.9 °F 24.6 °F 47% 29.71 in 10.0 mi SSW 13.8 mph 20.7 mph N/A   Overcast
3:15 PM 43.3 °F 37.7 °F 24.3 °F 47% 29.71 in 10.0 mi SSW 10.4 mph 23.0 mph N/A   Overcast
3:35 PM 42.6 °F 35.2 °F 24.8 °F 49% 29.71 in 10.0 mi SW 15.0 mph 26.5 mph N/A   Overcast
3:55 PM 42.1 °F 33.1 °F 25.9 °F 53% 29.71 in 10.0 mi WSW 20.7 mph 24.2 mph N/A   Overcast
4:15 PM 41.7 °F 34.1 °F 27.9 °F 58% 29.72 in 10.0 mi WSW 15.0 mph 24.2 mph N/A   Overcast
4:35 PM 41.0 °F 34.7 °F 28.4 °F 61% 29.72 in 10.0 mi SW 10.4 mph 17.3 mph N/A   Overcast
4:55 PM 40.3 °F 33.9 °F 30.2 °F 67% 29.73 in 10.0 mi WSW 10.4 mph 16.1 mph N/A   Overcast
5:15 PM 38.3 °F 29.0 °F 32.2 °F 79% 29.75 in 10.0 mi WSW 17.3 mph 21.9 mph N/A   Overcast
5:35 PM 36.5 °F 28.2 °F 33.4 °F 89% 29.75 in 10.0 mi SW 12.7 mph 17.3 mph N/A   Overcast
5:55 PM 36.1 °F 26.9 °F 33.1 °F 89% 29.74 in 10.0 mi SW 15.0 mph 19.6 mph N/A   Overcast
6:15 PM 35.2 °F 27.6 °F 32.9 °F 91% 29.73 in 10.0 mi SSW 10.4 mph - N/A   Overcast
6:35 PM 34.9 °F 29.0 °F 32.5 °F 91% 29.73 in 10.0 mi SW 6.9 mph - N/A   Overcast
6:55 PM 34.7 °F 28.8 °F 32.0 °F 90% 29.74 in 10.0 mi SW 6.9 mph - N/A   Overcast
7:15 PM 34.9 °F 30.8 °F 32.0 °F 89% 29.74 in 10.0 mi SW 4.6 mph - N/A   Overcast
7:35 PM 35.1 °F 31.0 °F 32.2 °F 89% 29.74 in 10.0 mi SSW 4.6 mph - N/A   Overcast
7:55 PM 35.2 °F 32.4 °F 32.2 °F 89% 29.74 in 10.0 mi SSW 3.5 mph - N/A   Overcast
8:35 PM 35.6 °F 31.7 °F 32.0 °F 87% 29.73 in 10.0 mi SSW 4.6 mph - N/A   Overcast
8:55 PM 34.9 °F 29.9 °F 32.0 °F 89% 29.72 in 10.0 mi SSW 5.8 mph - N/A   Mostly Cloudy
9:15 PM 34.7 °F 30.6 °F 32.0 °F 90% 29.72 in 10.0 mi SW 4.6 mph - N/A   Scattered Clouds
9:35 PM 34.0 °F 29.8 °F 31.8 °F 92% 29.70 in 10.0 mi SSW 4.6 mph - N/A   Clear
9:55 PM 34.3 °F 29.2 °F 32.0 °F 91% 29.69 in 10.0 mi South 5.8 mph - N/A   Mostly Cloudy
10:15 PM 34.3 °F 29.2 °F 32.0 °F 91% 29.69 in 10.0 mi SSW 5.8 mph - N/A   Overcast
10:35 PM 34.7 °F 27.5 °F 32.0 °F 90% 29.68 in 10.0 mi SSW 9.2 mph - N/A   Overcast
10:55 PM 35.1 °F 28.6 °F 31.8 °F 88% 29.66 in 10.0 mi SSW 8.1 mph - N/A   Overcast
11:15 PM 35.6 °F 28.6 °F 31.6 °F 85% 29.67 in 10.0 mi SW 9.2 mph - N/A   Mostly Cloudy
11:35 PM 36.1 °F 29.9 °F 31.6 °F 84% 29.66 in 10.0 mi SW 8.1 mph - N/A   Mostly Cloudy
11:55 PM 36.5 °F 28.2 °F 31.3 °F 81% 29.66 in 10.0 mi WSW 12.7 mph 17.3 mph N/A   Overcast